Home > Weather > Almaty > Past weeks

Flag for Kazakhstan Past Weather in Almaty, Kazakhstan — Yesterday and Last 2 Weeks

Now
73 °F

Scattered clouds.


Feels Like: 77 °F
Forecast: 70 / 98 °F
Wind: No wind

Location: Almaty Airport

Current Time: Jul 25, 2016 at 8:34:52 AM

Latest Report: Jul 25, 2016 at 8:00 AM


Visibility: N/A

Pressure: 29.77 "Hg (27.18 "Hg at 790m altitude)

Humidity: 57%

Dew Point: 57 °F

Location of AlmatyLocation

Past Weather in Almaty — Graph

°F

Almaty Temperature Yesterday

Maximum temperature yesterday: 88 °F (at 2:30 PM)
Minimum temperature yesterday: 59 °F (at 3:30 AM)
Average temperature yesterday: 74 °F

High & Low Weather Summary for the Past Weeks

 TemperatureHumidityPressure
High93 °F (Jul 13, 2:00 PM)94% (Jul 14, 10:30 PM)29.98 "Hg (Jul 14, 10:30 PM)
Low57 °F (Jul 23, 6:00 AM)20% (Jul 10, 1:30 PM)29.53 "Hg (Jul 18, 4:00 PM)
Average75 °F57%29.77 "Hg
* Reported Jul 10 7:00 AM — Jul 25 7:30 AM, Almaty, Weather by CustomWeather, © 2016

Note: Actual official high and low records may vary slightly from our data, if they occured in-between our weather recording intervals... More about our weather records

Advertising

Almaty Weather History for the Previous 24 Hours

Scroll right to see more
 ConditionsComfort  
Time TempWeatherWind HumidityBarometerVisibility
7:30 AM
Mon, Jul 25
70 °FScattered clouds.1 mph69%29.77 "HgN/A
7:00 AM66 °FScattered clouds.1 mph78%29.77 "HgN/A
6:30 AM64 °FScattered clouds.No wind78%29.77 "HgN/A
6:00 AM63 °FPassing clouds.3 mph83%29.77 "HgN/A
5:30 AM61 °FPassing clouds.1 mph88%29.77 "HgN/A
5:00 AM63 °FPassing clouds.3 mph77%29.77 "HgN/A
4:30 AM63 °FPassing clouds.6 mph83%29.77 "HgN/A
4:00 AM63 °FPassing clouds.3 mph83%29.77 "HgN/A
3:30 AM63 °FPassing clouds.3 mph83%29.77 "HgN/A
3:00 AM64 °FPassing clouds.1 mph78%29.77 "HgN/A
2:30 AM64 °FPassing clouds.3 mph78%29.77 "HgN/A
2:00 AM64 °FPassing clouds.No wind78%29.80 "HgN/A
1:30 AM66 °FPassing clouds.6 mph73%29.80 "HgN/A
1:00 AM66 °FPassing clouds.1 mph78%29.80 "HgN/A
12:30 AM66 °FPassing clouds.1 mph78%29.80 "HgN/A
12:00 AM68 °FPassing clouds.3 mph73%29.80 "HgN/A
11:30 PM
Sun, Jul 24
70 °FPassing clouds.1 mph69%29.80 "HgN/A
11:00 PM70 °FPassing clouds.3 mph73%29.80 "HgN/A
10:30 PM73 °FPassing clouds.3 mph61%29.80 "HgN/A
10:00 PM72 °FPassing clouds.1 mph69%29.83 "HgN/A
9:30 PM73 °FPassing clouds.1 mph65%29.83 "HgN/A
9:00 PM73 °FPassing clouds.3 mph65%29.80 "HgN/A
8:30 PM75 °FPassing clouds.3 mph57%29.80 "HgN/A
8:00 PM79 °FPartly sunny.6 mph51%29.83 "HgN/A
7:30 PM81 °FScattered clouds.6 mph45%29.83 "HgN/A
7:00 PM82 °FScattered clouds.8 mph42%29.83 "HgN/A
6:30 PM84 °FScattered clouds.6 mph37%29.80 "HgN/A
6:00 PM86 °FPartly sunny.6 mph31%29.83 "HgN/A
5:30 PM86 °FPartly sunny.6 mph33%29.83 "HgN/A
5:00 PM86 °FPartly sunny.8 mph33%29.80 "HgN/A
4:30 PM88 °FPartly sunny.3 mph29%29.80 "HgN/A
4:00 PM88 °FPartly sunny.6 mph27%29.80 "HgN/A
3:30 PM88 °FPartly sunny.6 mph29%29.80 "HgN/A
3:00 PM88 °FPartly sunny.8 mph29%29.80 "HgN/A
2:30 PM88 °FPartly sunny.8 mph27%29.80 "HgN/A
2:00 PM86 °FPartly sunny.6 mph35%29.80 "HgN/A
1:30 PM86 °FBroken clouds.6 mph38%29.80 "HgN/A
1:00 PM84 °FBroken clouds.6 mph40%29.83 "HgN/A
12:30 PM84 °FBroken clouds.6 mph35%29.83 "HgN/A
12:00 PM84 °FScattered clouds.3 mph37%29.83 "HgN/A
11:30 AM82 °FScattered clouds.3 mph45%29.83 "HgN/A
11:00 AM79 °FScattered clouds.3 mph51%29.83 "HgN/A
10:30 AM79 °FScattered clouds.3 mph48%29.83 "HgN/A
10:00 AM77 °FScattered clouds.1 mph51%29.83 "HgN/A
9:30 AM75 °FScattered clouds.3 mph54%29.83 "HgN/A
9:00 AM73 °FScattered clouds.3 mph57%29.83 "HgN/A
8:30 AM72 °FScattered clouds.1 mph53%29.83 "HgN/A
8:00 AM70 °FScattered clouds.1 mph60%29.83 "HgN/A
Weather by CustomWeather, © 2016

See weather overviewHow to use our weather pages